Regional Weather Roundup
Issued by NWS

Home | Current Version | Previous Version | Text Only | Print | Product List | Glossary Off
Versions: 1 2 3 4 5 6 7 8 9 10 11 12 13 14 15 16 17 18 19 20 21 22 23 24 25 26 27 28 29 30 31 32 33 34 35 36 37 38 39 40 41 42 43 44 45 46 47 48 49 50

000
ASUS43 KLMK 131502
RWRKY
KENTUCKY REGIONAL WEATHER ROUNDUP
NATIONAL WEATHER SERVICE LOUISVILLE KY
1000 AM EST SAT FEB 13 2016

NOTE "FAIR" INDICATES FEW OR NO CLOUDS BELOW 12,000 FEET
WITH NO SIGNIFICANT WEATHER AND/OR OBSTRUCTIONS TO VISIBILITY.

KYZ001>023-026-027-061>063-070>075-131600-
WESTERN AND SOUTH CENTRAL KENTUCKY

CITY           SKY/WX    TMP DP  RH WIND       PRES   REMARKS
PADUCAH        CLOUDY    20   3  48 NE12      30.63R WCI   8
HENDERSON      SUNNY     16   3  57 N7        30.64F WCI   6
OWENSBORO      SUNNY     18   3  51 N7        30.64R WCI   9
HOPKINSVILLE   SUNNY     19   5  54 N10       30.59R WCI   8
BOWLING GREEN  SUNNY     20   6  55 N10       30.59R WCI   9
GLASGOW        NOT AVBL
$$

KYZ024-025-028>034-038-045-046-053-131600-
NORTH CENTRAL KENTUCKY

CITY           SKY/WX    TMP DP  RH WIND       PRES   REMARKS
LOUISVILLE/SDF MOSUNNY   19   0  43 N10       30.59R WCI   7
LOUISVILLE/LOU SUNNY     18   1  47 VRB7      30.59R WCI   9
FORT KNOX      SUNNY     17  -1  44 NW10      30.55R WCI   5
$$

KYZ035>037-039>044-047>052-055>060-089>105-131600-
NORTHEAST KENTUCKY

CITY           SKY/WX    TMP DP  RH WIND       PRES   REMARKS
LEXINGTON      MOSUNNY   14   3  61 N12       30.52R WCI   0
COVINGTON      MOSUNNY   12   3  67 NW7       30.53R WCI   1
FRANKFORT      MOSUNNY   17   1  49 N10       30.54R WCI   5
$$

KYZ054-064>069-076>088-106>120-131600-
SOUTHEAST KENTUCKY

CITY           SKY/WX    TMP DP  RH WIND       PRES   REMARKS
JACKSON        PTSUNNY   16   3  56 VRB3      30.45R
LONDON         CLOUDY    17   5  59 NW10      30.47R WCI   5
SOMERSET       NOT AVBL
MIDDLESBORO    NOT AVBL
MONTICELLO     SUNNY     22   8  55 N15       30.53R WCI   9
$$




USA.gov is the U.S. government's official web portal to all federal, state and local government web resources and services.